Temperature
25 24 23 23 21 21 20 20 20 19 19 19 19 19 19 19 19 19 19 19 18 18 18 18 18 18 18 18 18 18 18 18 18 18 18 18 18 18 18 18 18 18 18
25 24 24 23 22 21 20 20 20 20 20 20 19 19 19 19 19 19 19 18 18 18 18 18 18 18 18 18 18 18 18 18 18 18 18 18 18 18 18 18 18 18 18
26 25 24 23 22 21 21 20 20 20 20 20 19 19 19 19 19 19 19 19 18 18 18 18 19 18 18 18 18 18 18 18 18 18 18 18 18 18 18 18 18 18 18
26 25 24 23 23 22 21 20 20 20 20 20 20 19 19 19 19 19 19 19 18 18 18 18 18 18 18 18 18 18 18 18 18 18 18 18 18 18 18 18 18 18 18
27 26 25 24 23 22 21 21 20 20 20 20 20 19 19 19 19 19 19 19 18 18 18 18 18 18 18 18 18 18 18 18 18 18 18 18 18 18 18 18 18 18 17
27 26 25 24 23 23 22 21 20 20 20 20 19 19 19 19 19 19 19 19 18 18 18 18 18 18 18 18 18 18 18 18 18 18 18 18 18 18 18 18 18 17 17
28 26 25 24 23 23 22 21 20 20 20 20 19 19 19 19 19 19 19 19 18 18 18 18 18 18 18 18 18 18 18 17 18 18 18 17 18 18 18 18 17 17 17
28 27 25 24 23 23 22 21 20 20 20 20 19 19 19 19 19 19 19 19 18 18 18 18 18 18 18 18 18 17 17 17 17 17 17 17 17 17 17 17 17 17 17
28 27 26 25 23 23 22 21 20 20 20 20 19 19 19 19 19 19 18 18 18 18 18 18 18 18 18 17 17 17 17 17 17 17 17 17 17 17 17 17 17 17 16
28 27 26 25 23 22 22 21 20 20 20 20 20 19 19 19 19 18 18 18 18 18 18 18 18 18 17 17 17 17 17 17 17 17 17 17 17 17 17 17 17 17 16
28 27 25 25 24 23 22 21 20 20 20 19 19 19 19 19 19 19 18 18 18 18 18 17 17 17 17 17 17 17 17 17 16 16 16 16 16 16 16 16 16 16 16
27 26 25 24 24 23 22 21 21 20 20 19 19 19 19 19 18 18 18 18 18 18 17 17 17 17 17 17 17 17 17 16 16 16 16 16 16 16 16 16 16 16 16
27 26 25 24 24 23 22 22 21 20 20 19 19 19 19 18 18 18 18 18 18 17 17 17 17 17 17 17 17 16 16 16 16 16 16 16 16 16 16 16 16 15 15
26 25 24 24 23 23 22 22 21 20 20 19 19 19 19 18 18 18 18 18 17 17 17 17 17 17 16 16 16 16 16 16 16 16 16 16 16 16 16 15 15 15 15
25 24 23 23 23 22 22 21 21 20 20 19 19 19 18 18 18 18 18 18 17 17 17 17 16 16 16 16 16 16 16 16 16 16 16 15 15 15 15 15 15 15 14
24 23 23 22 22 22 21 21 20 20 20 19 19 18 18 18 18 18 17 17 17 17 17 16 16 16 16 16 16 16 16 16 16 15 15 15 15 15 15 15 14 14 14
24 23 22 22 22 21 21 20 20 20 19 19 19 18 18 18 17 17 17 17 17 17 16 16 16 16 16 16 16 16 15 15 15 15 15 14 14 14 14 14 14 14 14
23 22 22 22 21 21 21 20 20 19 19 18 18 18 18 17 17 17 17 17 16 16 16 16 15 16 16 16 15 15 15 15 15 15 14 14 14 14 14 14 14 14 13
22 21 21 21 21 21 20 20 19 19 18 18 18 18 18 17 17 17 17 17 16 16 16 15 15 15 15 15 15 15 15 14 14 14 14 14 14 14 14 13 13 13 13
22 21 21 21 20 20 20 19 19 19 18 18 18 18 17 17 17 17 17 16 16 16 15 15 15 15 15 15 15 15 14 14 14 14 14 14 14 14 14 13 13 13 13
21 21 20 20 19 19 19 19 19 18 18 18 18 18 17 17 17 17 16 16 16 16 15 15 15 15 15 15 15 14 14 14 14 13 14 14 14 14 13 13 13 13 13
21 20 20 19 19 19 18 18 18 18 17 17 17 17 17 17 17 16 16 16 15 15 15 15 15 15 15 14 14 14 14 14 14 13 13 13 13 13 13 13 13 13 13
20 20 19 19 19 18 18 18 17 17 17 17 17 17 17 17 17 16 16 16 15 15 15 15 14 14 14 14 14 14 14 14 13 13 13 13 13 13 13 13 13 12 12
19 19 19 19 18 18 18 17 17 17 16 16 16 16 16 17 16 16 16 15 15 15 14 14 14 14 14 14 14 14 13 13 13 13 13 13 13 13 13 13 12 12 12
19 19 18 18 18 18 17 17 17 16 16 16 16 16 16 16 16 16 15 15 15 15 15 15 14 14 14 14 14 14 13 13 13 13 12 12 12 12 12 12 12 12 12
18 18 18 18 18 17 17 17 16 16 16 16 16 16 16 16 16 15 15 15 15 15 15 15 14 14 14 14 14 14 13 13 13 12 12 12 12 12 12 12 12 12 12
Wind_Speed
12 11 11 11 11 9 7 6 6 5 3 2 2 2 2 2 2 2 4 3 2 2 1 1 1 0 1 1 1 1 1 2 2 1 1 2 2 3 3 2 2 3 5
13 12 11 11 11 9 8 7 6 6 5 3 2 2 2 2 2 2 3 3 3 2 2 1 1 1 1 0 1 1 1 2 1 1 1 0 0 1 3 3 4 4 3
15 14 12 11 11 10 9 7 6 5 4 5 3 2 2 1 2 2 3 2 2 2 1 2 0 1 1 1 2 1 1 1 2 1 1 1 1 1 1 2 3 3 3
15 14 13 12 12 11 10 8 7 6 5 4 3 3 3 2 2 2 2 2 2 2 2 2 1 1 1 1 2 1 2 1 2 2 2 2 2 1 1 1 1 3 3
15 15 14 12 12 11 11 9 7 6 5 4 3 2 2 1 1 2 3 2 3 3 3 3 2 1 1 1 2 0 1 1 2 2 1 2 2 3 2 2 2 1 1
14 14 13 12 11 10 10 10 8 6 5 4 3 2 1 1 1 1 2 2 3 3 3 3 2 2 1 1 2 1 1 1 2 2 2 2 2 2 2 2 2 2 1
14 14 14 12 11 10 10 10 9 7 5 4 3 3 2 2 2 2 2 2 1 2 2 2 2 1 1 2 2 1 2 2 2 2 3 3 3 2 1 2 2 1 1
14 14 14 13 11 11 10 10 9 7 6 5 4 3 3 2 1 1 1 1 0 1 2 2 2 2 1 1 1 1 2 1 2 3 2 3 2 2 1 1 1 2 1
13 13 13 13 12 10 8 8 9 8 7 6 5 3 2 1 0 1 1 0 0 1 2 2 2 2 1 1 1 1 1 1 2 2 2 3 2 1 1 1 1 1 1
12 13 13 13 12 11 10 9 9 8 6 6 5 5 3 2 1 1 1 1 1 1 1 1 1 1 1 1 1 1 1 1 1 1 1 2 2 1 1 1 1 1 1
11 12 11 12 12 12 12 10 9 8 7 5 4 3 4 3 2 2 2 1 1 1 1 1 0 1 1 1 1 1 1 1 1 1 1 1 1 1 2 1 1 0 1
9 11 11 11 10 11 12 10 10 9 7 6 5 4 4 3 3 2 2 2 1 1 0 0 0 1 0 0 1 1 1 1 1 1 1 1 1 1 2 2 1 1 1
8 9 10 10 9 9 9 10 9 9 8 7 6 5 4 4 3 3 2 2 1 1 0 1 1 1 1 1 1 1 0 0 1 1 1 1 2 2 1 1 1 1 1
7 7 8 7 7 7 7 8 8 7 7 7 6 5 5 4 4 3 2 2 2 2 1 1 0 1 0 1 1 0 0 1 1 2 2 2 2 2 2 1 2 2 1
7 7 6 6 6 6 5 6 6 6 6 7 6 5 5 5 4 3 3 2 2 2 1 1 1 1 0 1 2 2 1 1 1 2 2 3 4 4 3 2 2 1 1
7 7 6 6 5 5 5 5 5 5 6 6 6 5 5 4 4 4 3 3 2 2 2 1 1 1 1 2 3 2 1 1 1 1 1 2 3 3 4 4 3 2 1
7 6 5 5 5 5 5 4 4 5 5 5 5 6 5 4 4 4 3 3 3 2 2 2 1 1 1 1 2 2 1 0 1 1 0 0 2 2 2 2 3 2 2
6 5 4 4 4 5 5 5 5 5 5 5 5 5 5 5 4 4 4 3 3 2 2 2 2 2 2 2 1 1 2 2 2 1 1 1 2 2 1 0 2 2 1
6 4 3 3 3 3 4 4 5 4 4 5 5 5 5 5 4 4 4 3 3 3 3 3 3 2 2 2 2 3 3 2 2 2 1 1 3 2 1 1 1 1 2
5 4 4 4 3 3 3 3 4 4 4 3 4 4 4 4 5 5 4 4 3 4 3 3 3 3 3 4 4 4 4 3 3 3 3 2 3 3 1 1 1 2 1
6 5 4 4 3 3 3 3 2 3 3 3 3 3 4 4 5 4 4 4 4 4 4 4 3 3 4 5 5 3 3 3 3 3 3 3 5 3 1 1 2 2 3
5 5 4 4 3 3 3 2 2 1 1 2 2 2 3 3 3 3 3 3 4 5 4 3 3 3 3 4 5 5 4 4 3 2 1 3 6 4 3 3 3 3 3
3 3 3 3 3 3 3 2 1 1 1 1 2 2 2 2 3 3 4 4 4 4 4 4 5 4 3 4 6 7 6 5 3 2 1 5 7 5 5 7 6 4 3
2 2 3 2 2 2 2 2 2 2 2 2 2 2 2 3 3 3 4 4 4 4 4 4 4 3 3 3 4 5 5 5 5 4 3 6 7 6 5 5 5 5 5
1 1 2 2 2 2 2 2 2 2 2 2 2 3 4 3 2 2 2 3 2 3 3 3 3 3 3 4 5 4 4 4 4 3 3 4 4 5 5 5 5 6 5
0 1 1 1 2 2 2 2 3 3 3 3 4 4 4 3 3 4 3 1 2 1 2 3 3 2 2 3 4 4 4 4 5 4 5 5 6 6 6 6 6 6 6
Wind_Direction
162 157 159 154 148 145 148 151 153 150 154 145 180 169 156 159 142 143 132 144 162 150 137 107 173 180 131 156 146 150 206 221 206 222 240 228 210 195 199 207 192 187 181
164 163 166 162 155 153 154 156 163 162 167 165 187 187 174 179 151 128 136 155 152 174 165 134 219 131 160 163 274 192 235 256 203 181 214 244 289 250 214 202 206 191 169
168 168 171 166 161 162 166 166 159 164 170 179 184 184 166 192 150 155 155 164 173 178 121 139 188 243 205 175 248 248 241 262 268 201 192 202 209 223 254 233 198 184 183
169 168 171 172 169 168 167 158 159 162 170 186 183 194 180 175 175 162 148 174 197 187 171 164 166 250 265 187 249 187 265 252 267 257 215 213 158 194 229 263 223 192 192
170 169 173 172 171 170 165 160 157 163 171 182 182 209 187 183 156 134 151 185 198 202 190 163 157 221 251 222 274 269 262 277 274 279 268 246 221 221 207 223 241 248 189
170 167 167 163 165 164 159 156 156 161 169 185 177 192 174 190 201 171 177 202 187 195 183 154 156 201 217 212 242 247 252 255 279 293 296 279 247 227 216 225 222 223 230
168 167 165 162 162 161 159 154 153 161 171 178 172 180 190 217 212 202 188 215 193 171 144 142 144 189 221 214 239 216 251 251 263 264 270 274 277 282 256 224 238 230 230
165 167 166 163 165 164 161 155 155 164 169 171 178 184 193 215 196 187 211 207 283 129 128 147 155 182 212 228 224 235 244 238 256 267 272 277 280 289 276 217 224 255 243
162 162 162 162 161 158 157 156 155 165 170 173 171 164 163 190 169 160 193 47 48 132 113 147 160 176 197 232 222 214 263 268 257 273 274 273 275 296 313 316 269 244 263
155 156 160 157 157 162 161 161 163 163 167 171 173 165 162 174 166 112 99 59 41 42 89 128 137 168 197 214 222 229 233 236 255 258 298 305 322 329 316 293 292 251 228
150 150 151 157 162 165 164 167 162 161 167 171 159 150 157 154 129 120 98 86 52 53 91 131 149 164 221 215 232 250 247 249 266 289 317 334 339 333 320 325 329 305 153
140 144 148 154 161 166 165 165 164 166 170 163 154 154 144 142 143 137 125 116 100 74 43 213 257 246 250 230 235 256 276 285 318 354 20 356 342 7 347 355 4 19 112
130 136 142 150 157 160 162 165 165 167 167 159 156 155 153 150 141 130 121 116 121 119 208 197 214 257 286 277 255 243 265 52 40 37 42 28 24 20 2 8 11 19 82
113 119 130 137 143 146 150 152 159 163 162 158 160 162 163 155 146 143 143 143 143 146 143 99 16 232 358 322 312 76 61 84 77 68 57 47 43 25 356 25 40 43 57
122 120 122 123 124 129 138 144 152 152 154 159 164 161 158 152 153 157 161 160 171 175 150 179 221 213 167 0 28 16 72 72 87 85 88 83 80 69 49 51 46 49 77
129 127 127 132 136 137 141 141 144 154 151 155 156 155 157 160 164 165 170 172 177 180 180 203 215 268 295 47 44 30 19 81 92 85 110 144 119 107 100 91 79 68 88
121 120 126 132 137 140 136 139 139 145 152 157 160 161 161 168 180 186 178 182 191 192 198 216 203 162 118 72 60 43 306 210 181 179 226 262 104 102 101 147 158 122 99
120 118 127 121 136 149 149 148 153 156 165 168 168 167 167 172 181 190 196 198 198 207 215 221 220 201 192 188 182 289 246 222 192 202 183 121 103 59 38 220 154 153 155
123 126 131 124 106 128 141 152 162 161 171 177 176 179 180 184 188 200 203 200 202 211 219 219 218 220 180 202 225 261 243 217 196 200 166 143 122 102 25 278 191 180 186
116 114 119 105 92 97 123 143 170 169 175 177 179 181 181 199 204 202 201 203 207 215 227 225 213 212 188 203 222 247 250 226 209 189 160 137 144 159 143 244 244 237 254
111 111 108 104 98 98 113 142 158 167 167 159 168 180 187 202 210 200 199 201 208 215 226 224 214 206 194 190 207 219 255 264 248 219 190 169 159 156 181 251 250 233 254
116 115 105 107 108 117 127 142 154 145 148 171 187 191 189 207 199 192 209 214 222 224 221 221 227 215 194 189 209 216 234 283 279 267 204 165 178 194 216 234 244 269 272
111 115 115 115 114 123 138 161 140 131 154 174 202 195 199 206 190 192 203 211 221 227 225 223 230 226 201 186 199 214 230 249 266 283 198 187 197 214 231 231 230 242 249
131 128 122 125 122 133 150 147 136 152 180 189 213 208 206 218 200 203 212 220 222 229 231 229 234 228 213 197 198 214 225 232 239 246 221 202 212 231 241 228 226 225 233
130 125 127 149 160 166 164 153 145 156 203 212 209 222 227 222 212 222 245 241 239 229 228 240 239 244 243 230 207 212 220 230 233 227 228 222 218 221 225 223 221 221 223
176 168 162 168 162 174 180 172 176 186 208 228 229 234 231 221 212 212 232 309 257 210 194 195 193 241 234 198 185 198 214 222 212 210 232 235 232 229 227 225 222 220 223
Height
1509 1512 1515 1517 1519 1520 1521 1522 1524 1524 1526 1527 1528 1529 1530 1530 1531 1532 1532 1532 1533 1533 1533 1534 1534 1535 1535 1536 1536 1536 1537 1537 1538 1538 1539 1540 1540 1541 1542 1542 1542 1543 1543
1506 1510 1513 1516 1517 1519 1520 1521 1523 1524 1525 1526 1527 1529 1529 1530 1531 1531 1531 1532 1532 1533 1533 1533 1533 1534 1534 1534 1535 1535 1535 1536 1537 1537 1538 1538 1540 1539 1540 1540 1541 1542 1542
1503 1507 1511 1514 1516 1518 1519 1521 1522 1523 1525 1526 1527 1529 1529 1530 1530 1531 1531 1531 1532 1532 1533 1532 1532 1533 1533 1533 1534 1534 1534 1535 1536 1536 1537 1537 1537 1538 1538 1538 1539 1540 1540
1499 1504 1508 1511 1514 1516 1518 1520 1521 1522 1524 1525 1527 1528 1528 1529 1529 1530 1530 1531 1531 1532 1532 1532 1532 1532 1532 1532 1533 1533 1533 1534 1534 1535 1535 1536 1536 1537 1537 1537 1537 1538 1538
1496 1501 1505 1509 1512 1515 1517 1518 1520 1521 1522 1524 1525 1526 1527 1528 1529 1529 1529 1530 1530 1531 1531 1531 1531 1531 1531 1531 1531 1532 1532 1532 1532 1533 1534 1534 1534 1535 1535 1535 1536 1536 1537
1493 1498 1502 1506 1510 1513 1515 1517 1518 1520 1521 1523 1524 1525 1526 1527 1528 1528 1528 1529 1529 1530 1530 1530 1530 1530 1530 1530 1531 1531 1531 1531 1531 1532 1532 1532 1533 1533 1533 1533 1534 1534 1535
1490 1495 1500 1503 1507 1511 1513 1515 1517 1519 1520 1522 1523 1524 1525 1526 1526 1527 1528 1528 1529 1529 1529 1529 1528 1529 1529 1529 1530 1530 1530 1530 1530 1530 1530 1530 1531 1531 1531 1532 1532 1532 1532
1487 1492 1497 1501 1505 1509 1511 1514 1515 1517 1519 1520 1521 1523 1524 1525 1525 1526 1527 1527 1527 1528 1527 1527 1527 1527 1528 1528 1528 1528 1528 1529 1529 1529 1529 1529 1529 1529 1529 1530 1530 1530 1530
1484 1489 1494 1498 1503 1506 1509 1512 1514 1516 1517 1518 1520 1521 1522 1523 1524 1525 1525 1526 1526 1526 1526 1526 1526 1526 1527 1527 1527 1527 1527 1527 1527 1527 1527 1527 1527 1527 1527 1527 1528 1529 1528
1483 1487 1492 1496 1500 1505 1507 1510 1512 1514 1516 1517 1518 1520 1521 1522 1523 1523 1524 1524 1525 1525 1525 1525 1525 1525 1526 1526 1526 1525 1525 1525 1525 1525 1525 1525 1525 1525 1525 1525 1525 1525 1526
1481 1486 1490 1495 1499 1503 1505 1507 1511 1513 1514 1516 1517 1519 1520 1521 1521 1522 1522 1522 1523 1523 1523 1524 1524 1524 1524 1524 1524 1524 1524 1524 1524 1524 1523 1523 1523 1523 1523 1523 1523 1523 1523
1480 1485 1489 1493 1497 1501 1504 1507 1509 1511 1513 1514 1515 1517 1518 1519 1520 1520 1520 1520 1521 1521 1522 1522 1522 1522 1523 1523 1523 1523 1523 1522 1522 1522 1522 1522 1521 1521 1521 1521 1521 1521 1521
1480 1484 1488 1492 1496 1499 1503 1505 1507 1510 1512 1513 1514 1515 1517 1517 1518 1518 1518 1519 1519 1519 1520 1520 1520 1520 1520 1521 1521 1521 1521 1521 1520 1520 1520 1520 1520 1519 1519 1519 1519 1519 1519
1481 1484 1487 1491 1494 1498 1501 1503 1506 1508 1510 1511 1512 1513 1514 1515 1516 1516 1517 1517 1518 1518 1518 1518 1518 1518 1518 1519 1519 1519 1519 1519 1519 1518 1518 1518 1518 1518 1517 1517 1517 1517 1518
1481 1485 1487 1491 1493 1496 1499 1501 1504 1506 1507 1509 1510 1511 1512 1513 1514 1515 1515 1516 1516 1517 1517 1517 1517 1517 1516 1517 1516 1517 1517 1517 1517 1517 1517 1517 1516 1516 1516 1516 1516 1516 1516
1482 1485 1488 1490 1492 1495 1497 1500 1502 1504 1505 1506 1508 1509 1510 1511 1512 1513 1514 1514 1515 1515 1515 1515 1515 1515 1515 1515 1515 1515 1515 1515 1515 1515 1515 1515 1515 1515 1514 1514 1514 1515 1515
1482 1485 1487 1490 1492 1494 1496 1498 1500 1502 1503 1504 1506 1507 1508 1509 1510 1511 1512 1512 1513 1513 1513 1513 1513 1513 1513 1513 1513 1513 1513 1513 1513 1513 1513 1513 1513 1513 1513 1513 1513 1513 1513
1482 1485 1487 1489 1492 1494 1496 1497 1499 1500 1502 1503 1504 1505 1506 1507 1508 1509 1509 1510 1510 1511 1511 1511 1511 1511 1510 1511 1511 1511 1511 1511 1511 1511 1511 1511 1511 1511 1512 1512 1512 1511 1511
1482 1484 1487 1489 1491 1492 1494 1496 1497 1498 1500 1501 1501 1503 1504 1504 1506 1507 1507 1508 1508 1508 1508 1509 1509 1509 1509 1509 1509 1509 1509 1509 1509 1509 1509 1509 1509 1509 1510 1510 1510 1510 1510
1481 1484 1486 1487 1489 1490 1492 1494 1495 1496 1497 1498 1499 1500 1501 1502 1503 1504 1505 1505 1505 1506 1506 1506 1506 1506 1506 1506 1506 1507 1507 1507 1507 1507 1507 1507 1507 1507 1507 1507 1507 1508 1508
1481 1483 1485 1486 1487 1489 1490 1492 1493 1494 1495 1496 1497 1498 1498 1499 1500 1501 1502 1502 1503 1503 1503 1504 1503 1504 1503 1503 1504 1504 1504 1504 1504 1504 1504 1504 1504 1504 1504 1504 1505 1505 1505
1481 1483 1484 1485 1486 1487 1489 1490 1491 1492 1493 1494 1495 1495 1496 1497 1497 1498 1498 1499 1500 1500 1500 1501 1501 1501 1501 1501 1501 1501 1501 1502 1502 1502 1501 1501 1502 1502 1502 1502 1502 1502 1503
1481 1482 1483 1484 1485 1486 1487 1488 1489 1490 1491 1491 1492 1493 1493 1494 1495 1495 1496 1497 1497 1497 1497 1498 1498 1498 1497 1497 1497 1497 1498 1498 1498 1498 1498 1498 1498 1499 1499 1499 1499 1500 1500
1480 1481 1482 1483 1484 1485 1486 1486 1487 1488 1488 1488 1489 1490 1490 1491 1492 1493 1494 1494 1494 1495 1495 1495 1495 1495 1494 1493 1493 1493 1494 1494 1494 1495 1495 1495 1495 1495 1495 1495 1496 1496 1496
1479 1480 1481 1481 1482 1483 1484 1484 1485 1485 1485 1485 1486 1487 1487 1488 1489 1489 1490 1490 1490 1491 1491 1491 1491 1491 1491 1490 1490 1489 1489 1490 1490 1490 1491 1490 1491 1490 1491 1491 1491 1492 1492
1478 1478 1479 1480 1480 1481 1482 1482 1482 1482 1482 1482 1483 1484 1484 1484 1485 1485 1486 1486 1487 1487 1487 1487 1487 1487 1487 1487 1486 1486 1486 1486 1487 1487 1486 1486 1486 1486 1487 1487 1487 1488 1488